Home > Weather > Biel > Past weeks

Flag for Switzerland Past Weather in Biel, Switzerland — Yesterday and Last 2 Weeks

Now
53 °F

Cool.


Feels Like: 52 °F
Forecast: 43 / 67 °F
Wind: 3 mph from Southwest

Location: Grenchen

Current Time: May 24, 2016 at 12:11:22 PM

Latest Report: May 24, 2016 at 11:00 AM


Visibility: N/A

Pressure: 30.03 "Hg

Humidity: 82%

Dew Point: 47 °F

Location of BielLocation

Past Weather in Biel — Graph

°F

Biel Temperature Yesterday

Maximum temperature yesterday: 52 °F (at 12:00 AM)
Minimum temperature yesterday: 45 °F (at 9:00 AM)
Average temperature yesterday: 48 °F

High & Low Weather Summary for the Past Weeks

 TemperatureHumidityPressure
High76 °F (May 22, 4:00 PM)100% (May 20, 3:00 AM)30.26 "Hg (May 20, 3:00 AM)
Low38 °F (May 16, 4:00 AM)37% (May 18, 4:40 PM)29.50 "Hg (May 11, 7:00 PM)
Average55 °F79%29.92 "Hg
* Reported May 9 11:00 AM — May 24 11:00 AM, Biel, Weather by CustomWeather, © 2016

Note: Actual official high and low records may vary slightly from our data, if they occured in-between our weather recording intervals... More about our weather records

Advertising

Biel Weather History for the Previous 24 Hours

Scroll right to see more
 ConditionsComfort  
Time TempWeatherWind HumidityBarometerVisibility
11:00 AM
Tue, May 24
53 °FCool.3 mph82%30.03 "HgN/A
10:00 AM52 °FCool.8 mph84%30.04 "HgN/A
9:00 AM52 °FCool.6 mph91%30.05 "HgN/A
8:00 AM49 °FCool.6 mph96%30.07 "HgN/A
7:00 AM48 °FCool.8 mph97%30.07 "HgN/A
6:00 AM48 °FCool.12 mph97%30.07 "HgN/A
5:00 AM48 °FCool.8 mph99%30.06 "HgN/A
4:00 AM48 °FCool.9 mph100%30.06 "HgN/A
3:00 AM47 °FCool.8 mph99%30.07 "HgN/A
2:00 AM47 °FCool.10 mph98%30.07 "HgN/A
1:00 AM48 °FCool.7 mph98%30.08 "HgN/A
12:00 AM47 °FCool.8 mph99%30.08 "HgN/A
11:00 PM
Mon, May 23
48 °FCool.5 mph98%30.08 "HgN/A
10:00 PM48 °FCool.7 mph96%30.07 "HgN/A
9:00 PM48 °FCool.5 mph97%30.06 "HgN/A
8:00 PM49 °FCool.7 mph97%30.05 "HgN/A
7:00 PM50 °FCool.6 mph94%30.04 "HgN/A
6:00 PM51 °FCool.5 mph89%30.03 "HgN/A
5:00 PM49 °FCool.12 mph88%30.04 "HgN/A
4:00 PM50 °FCool.10 mph85%30.04 "HgN/A
3:00 PM50 °FCool.13 mph89%30.04 "HgN/A
2:00 PM49 °FCool.2 mph90%30.04 "HgN/A
1:00 PM48 °FCool.8 mph92%30.03 "HgN/A
12:00 PM47 °FCool.3 mph93%30.04 "HgN/A
Weather by CustomWeather, © 2016

See weather overviewHow to use our weather pages